When you browse on this site, cookies collect data to enhance your experience and personalize the content and advertising you see.
Visit our Privacy Policy to learn more. By continuing to use the site, you agree to this use of cookies and data.
  • Em Portugal
  • Lista de países
  • Para 7 dias
  • Temperatura da água
  • Mapas de satélite
  • Mapa do tempo
  • Widgets de tempo
  • user-avatar
    Iniciar Sessão

    Previsão horária em Uznozh

    Hoje, 24 Junho, Segunda-feira

    Tempo Temperatura Precipitação Vento Pressão Humidade
    00:00 +17°C° 0 mm 4 m/s 752 mmHg 95%
    01:00 +15°C° 0 mm 4 m/s 752 mmHg 95%
    02:00 +15°C° 0 mm 4 m/s 753 mmHg 96%
    03:00 +15°C° 0 mm 4 m/s 753 mmHg 95%
    04:00 +15°C° 0 mm 4 m/s 753 mmHg 94%
    05:00 +15°C° 0 mm 4 m/s 753 mmHg 93%
    06:00 +17°C° 0 mm 4 m/s 753 mmHg 88%
    07:00 +18°C° 0 mm 4 m/s 753 mmHg 84%
    08:00 +20°C° 0 mm 5 m/s 754 mmHg 79%
    09:00 +21°C° 0 mm 5 m/s 754 mmHg 74%
    10:00 +22°C° 0 mm 5 m/s 754 mmHg 69%
    11:00 +25°C° 0 mm 5 m/s 754 mmHg 65%
    12:00 +25°C° 0 mm 5 m/s 754 mmHg 64%
    13:00 +25°C° 0 mm 5 m/s 755 mmHg 63%
    14:00 +26°C° 0 mm 5 m/s 755 mmHg 62%
    15:00 +25°C° 0 mm 5 m/s 755 mmHg 63%
    16:00 +25°C° 0 mm 5 m/s 755 mmHg 64%
    17:00 +23°C° 0 mm 5 m/s 755 mmHg 65%
    18:00 +22°C° 0 mm 4 m/s 755 mmHg 71%
    19:00 +20°C° 0 mm 4 m/s 755 mmHg 77%
    20:00 +19°C° 0 mm 3 m/s 756 mmHg 83%
    21:00 +18°C° 0 mm 3 m/s 756 mmHg 84%
    22:00 +17°C° 0 mm 3 m/s 756 mmHg 86%
    23:00 +16°C° 0 mm 3 m/s 756 mmHg 87%

    Amanhã, 25 Junho, Terça-feira

    Tempo Temperatura Precipitação Vento Pressão Humidade
    00:00 +14°C° 0 mm 3 m/s 757 mmHg 88%
    01:00 +14°C° 0 mm 3 m/s 757 mmHg 90%
    02:00 +13°C° 0 mm 3 m/s 758 mmHg 91%
    03:00 +14°C° 0 mm 2 m/s 757 mmHg 90%
    04:00 +15°C° 0 mm 2 m/s 757 mmHg 89%
    05:00 +15°C° 0 mm 2 m/s 757 mmHg 88%
    06:00 +17°C° 0 mm 2 m/s 757 mmHg 82%
    07:00 +19°C° 0 mm 2 m/s 758 mmHg 77%
    08:00 +20°C° 0 mm 2 m/s 758 mmHg 71%
    09:00 +22°C° 0 mm 3 m/s 758 mmHg 66%
    10:00 +24°C° 0 mm 3 m/s 758 mmHg 61%
    11:00 +25°C° 0 mm 3 m/s 758 mmHg 57%
    12:00 +25°C° 0 mm 3 m/s 758 mmHg 56%
    13:00 +26°C° 0 mm 3 m/s 758 mmHg 55%
    14:00 +26°C° 0 mm 3 m/s 758 mmHg 54%
    15:00 +26°C° 0 mm 3 m/s 758 mmHg 56%
    16:00 +25°C° 0 mm 3 m/s 758 mmHg 58%
    17:00 +25°C° 0 mm 3 m/s 758 mmHg 60%
    18:00 +22°C° 0 mm 3 m/s 758 mmHg 67%
    19:00 +21°C° 0 mm 3 m/s 758 mmHg 74%
    20:00 +19°C° 0 mm 2 m/s 758 mmHg 81%
    21:00 +18°C° 0 mm 2 m/s 758 mmHg 82%
    22:00 +17°C° 0 mm 2 m/s 758 mmHg 83%
    23:00 +16°C° 0 mm 2 m/s 758 mmHg 84%

    Depois de amanhã, 26 Junho, Quarta-feira

    Tempo Temperatura Precipitação Vento Pressão Humidade
    00:00 +16°C° 0 mm 1 m/s 758 mmHg 85%
    01:00 +15°C° 0 mm 1 m/s 758 mmHg 85%
    02:00 +15°C° 0 mm 1 m/s 758 mmHg 86%
    03:00 +15°C° 0 mm 1 m/s 758 mmHg 85%
    04:00 +15°C° 0 mm 1 m/s 758 mmHg 85%
    05:00 +15°C° 0 mm 0 m/s 757 mmHg 84%
    06:00 +16°C° 0 mm 0 m/s 757 mmHg 79%
    07:00 +18°C° 0 mm 0 m/s 757 mmHg 74%
    08:00 +20°C° 0 mm 0 m/s 758 mmHg 69%
    09:00 +21°C° 0 mm 0 m/s 757 mmHg 64%
    10:00 +24°C° 0 mm 1 m/s 757 mmHg 59%
    11:00 +25°C° 0 mm 1 m/s 756 mmHg 53%
    12:00 +26°C° 0 mm 1 m/s 756 mmHg 52%
    13:00 +26°C° 0 mm 2 m/s 755 mmHg 50%
    14:00 +27°C° 0 mm 2 m/s 755 mmHg 48%
    15:00 +27°C° 0 mm 2 m/s 754 mmHg 50%
    16:00 +27°C° 0 mm 2 m/s 754 mmHg 53%
    17:00 +27°C° 0 mm 2 m/s 753 mmHg 55%
    18:00 +25°C° 0 mm 2 m/s 753 mmHg 61%
    19:00 +24°C° 0 mm 2 m/s 752 mmHg 68%
    20:00 +22°C° 0 mm 1 m/s 752 mmHg 74%
    21:00 +21°C° 0 mm 1 m/s 751 mmHg 77%
    22:00 +20°C° 0 mm 2 m/s 751 mmHg 79%
    23:00 +19°C° 0 mm 2 m/s 751 mmHg 81%

    27 Junho, Quinta-feira

    Tempo Temperatura Precipitação Vento Pressão Humidade
    00:00 +19°C° 0 mm 2 m/s 750 mmHg 83%
    01:00 +18°C° 0 mm 2 m/s 749 mmHg 84%
    02:00 +18°C° 0 mm 3 m/s 748 mmHg 86%
    03:00 +18°C° 0 mm 3 m/s 748 mmHg 86%
    04:00 +19°C° 0 mm 4 m/s 747 mmHg 86%
    05:00 +19°C° 0 mm 4 m/s 746 mmHg 85%
    06:00 +20°C° 0.3 mm 5 m/s 745 mmHg 84%
    07:00 +21°C° 0.3 mm 5 m/s 745 mmHg 83%
    08:00 +21°C° 0.3 mm 6 m/s 744 mmHg 82%
    09:00 +22°C° 1.1 mm 6 m/s 743 mmHg 83%
    10:00 +23°C° 1.1 mm 6 m/s 742 mmHg 84%
    11:00 +23°C° 1.1 mm 6 m/s 742 mmHg 85%
    12:00 +24°C° 1.1 mm 6 m/s 741 mmHg 83%
    13:00 +24°C° 1.1 mm 6 m/s 741 mmHg 81%
    14:00 +26°C° 1.1 mm 6 m/s 740 mmHg 79%
    15:00 +23°C° 0.6 mm 7 m/s 740 mmHg 80%
    16:00 +22°C° 0.6 mm 8 m/s 740 mmHg 81%
    17:00 +21°C° 0.6 mm 8 m/s 740 mmHg 82%
    18:00 +20°C° 0.1 mm 7 m/s 740 mmHg 82%
    19:00 +17°C° 0.1 mm 6 m/s 741 mmHg 81%
    20:00 +15°C° 0.1 mm 5 m/s 741 mmHg 80%
    21:00 +15°C° 0 mm 5 m/s 741 mmHg 77%
    22:00 +15°C° 0 mm 5 m/s 741 mmHg 74%
    23:00 +14°C° 0 mm 6 m/s 742 mmHg 71%

    28 Junho, Sexta-feira

    Tempo Temperatura Precipitação Vento Pressão Humidade
    00:00 +14°C° 0 mm 6 m/s 741 mmHg 73%
    01:00 +13°C° 0 mm 6 m/s 741 mmHg 74%
    02:00 +13°C° 0 mm 6 m/s 741 mmHg 75%
    03:00 +11°C° 0 mm 6 m/s 741 mmHg 76%
    04:00 +11°C° 0 mm 6 m/s 741 mmHg 77%
    05:00 +10°C° 0 mm 7 m/s 741 mmHg 78%
    06:00 +11°C° 0 mm 7 m/s 741 mmHg 75%
    07:00 +12°C° 0 mm 8 m/s 741 mmHg 73%
    08:00 +13°C° 0 mm 8 m/s 741 mmHg 70%
    09:00 +15°C° 0 mm 9 m/s 741 mmHg 69%
    10:00 +16°C° 0 mm 9 m/s 741 mmHg 67%
    11:00 +17°C° 0 mm 9 m/s 741 mmHg 65%
    12:00 +17°C° 0.3 mm 9 m/s 740 mmHg 66%
    13:00 +17°C° 0.3 mm 9 m/s 740 mmHg 66%
    14:00 +18°C° 0.3 mm 8 m/s 740 mmHg 67%
    15:00 +17°C° 0.4 mm 8 m/s 740 mmHg 69%
    16:00 +17°C° 0.4 mm 7 m/s 740 mmHg 71%
    17:00 +17°C° 0.4 mm 7 m/s 740 mmHg 72%
    18:00 +16°C° 0.1 mm 6 m/s 740 mmHg 74%
    19:00 +15°C° 0.1 mm 5 m/s 740 mmHg 75%
    20:00 +14°C° 0.1 mm 4 m/s 741 mmHg 77%
    21:00 +13°C° 0 mm 5 m/s 740 mmHg 75%
    22:00 +13°C° 0 mm 5 m/s 740 mmHg 74%
    23:00 +13°C° 0 mm 5 m/s 740 mmHg 72%

    29 Junho, Sábado

    Tempo Temperatura Precipitação Vento Pressão Humidade
    00:00 +12°C° 0 mm 5 m/s 740 mmHg 71%
    01:00 +12°C° 0 mm 5 m/s 740 mmHg 71%
    02:00 +12°C° 0 mm 5 m/s 740 mmHg 71%
    03:00 +11°C° 0.1 mm 6 m/s 740 mmHg 73%
    04:00 +10°C° 0.1 mm 6 m/s 740 mmHg 75%
    05:00 +9°C° 0.1 mm 7 m/s 740 mmHg 76%
    06:00 +10°C° 0 mm 7 m/s 740 mmHg 74%
    07:00 +10°C° 0 mm 8 m/s 740 mmHg 72%
    08:00 +10°C° 0 mm 8 m/s 740 mmHg 69%
    09:00 +11°C° 0 mm 8 m/s 740 mmHg 68%
    10:00 +11°C° 0 mm 8 m/s 740 mmHg 67%
    11:00 +11°C° 0 mm 8 m/s 741 mmHg 65%
    12:00 +11°C° 0.1 mm 8 m/s 741 mmHg 68%
    13:00 +11°C° 0.1 mm 7 m/s 741 mmHg 70%
    14:00 +11°C° 0.1 mm 7 m/s 741 mmHg 72%
    15:00 +11°C° 0.1 mm 7 m/s 741 mmHg 69%
    16:00 +12°C° 0.1 mm 7 m/s 741 mmHg 65%
    17:00 +14°C° 0.1 mm 7 m/s 741 mmHg 62%
    18:00 +12°C° 0.1 mm 7 m/s 741 mmHg 64%
    19:00 +13°C° 0.1 mm 6 m/s 741 mmHg 66%
    20:00 +12°C° 0.1 mm 5 m/s 741 mmHg 67%
    21:00 +12°C° 0 mm 5 m/s 741 mmHg 64%
    22:00 +11°C° 0 mm 6 m/s 741 mmHg 61%
    23:00 +11°C° 0 mm 6 m/s 741 mmHg 57%
    Mostrar mais